Regional Weather Roundup
Issued by NWS

Home | Current Version | Previous Version | Text Only | Print | Product List | Glossary On
Versions: 1 2 3 4 5 6 7 8 9 10 11 12 13 14 15 16 17 18 19 20 21 22 23 24 25 26 27 28 29 30 31 32 33 34 35 36 37 38 39 40 41 42 43 44 45 46 47 48 49 50
000
ASCA44 KEWX 072120
RWRMX

LATIN AMERICA AND CARIBBEAN REGIONAL WEATHER ROUNDUP
NATIONAL WEATHER SERVICE AUSTIN/SAN ANTONIO TX
300 PM CST WED DEC 07 2016

NOTE: "FAIR" INDICATED FEW OR NO CLOUDS BELOW 12,000 FEET WITH NO
SIGNIFICANT WEATHER AND/OR OBSTRUCTIONS TO VISIBILITY.

BAJA CALIFORNIA

CITY           SKY/WX    TMP DP  RH WIND       PRES   REMARKS
LORETO         SUNNY     73  54  49 NE12      29.94F
LA PAZ         SUNNY     81  46  30 N9        29.98F
MEXICALI       PTSUNNY   68  23  18 N6        30.04F
S.J. DEL CABO  SUNNY     79  52  38 SE3       29.97F
TIJUANA        PTSUNNY   63  45  51 S9        30.09F

NORTHWESTERN MEXICO

CITY           SKY/WX    TMP DP  RH WIND       PRES   REMARKS
CULIACAN       SUNNY     84  46  26 S6        29.95F
DURANGO        MOSUNNY   75   1   5 S17       30.13F
GUAYMAS        MOSUNNY   70  61  73 W12       29.93F
HERMOSILLO     PTSUNNY   73  52  46 SW5       29.99F
CD. JUAREZ     CLOUDY    55  39  54 N6        29.95S
LOS MOCHIS     SUNNY     75  57  53 SW10      29.98F
OBREGON        PTSUNNY   75  57  53 SW10      29.94F

NORTHEASTERN MEXICO

CITY           SKY/WX    TMP DP  RH WIND       PRES   REMARKS
CHIHUAHUA      PTSUNNY   73  28  19 SW15      29.90F
MATAMOROS      PTSUNNY   81  68  65 S9        29.91F
MONCLOVA       SUNNY     75  50  41 E7        29.95
MONTERREY      PTSUNNY   73  54  49 SE5       29.97R
NUEVO LAREDO   CLOUDY    63  55  77 CALM      29.96F
PIEDRAS NEGRAS CLOUDY    54  46  76 CALM      30.01S
REYNOSA        CLOUDY    68  57  68 NW6       29.92F
SALTILLO       MOSUNNY   73  39  29 NE6       30.11F
TORREON        MOSUNNY   79  30  17 E9        29.99F
CD. VICTORIA   MOSUNNY   84  61  45 S23       29.88F

WESTERN MEXICO

CITY           SKY/WX    TMP DP  RH WIND       PRES   REMARKS
AGUASCALIENTES PTSUNNY   75  16  10 SW8       30.20F
COLIMA         MOSUNNY   81  63  54 W9        30.04F
DEL BAJIO      MOSUNNY   77  25  14 NW6       30.25F
GUADALAJARA    MOSUNNY   77  27  15 NW6       30.14F
MANZANILLO     MOSUNNY   82  70  65 SW9       29.88F
MAZATLAN       PTSUNNY   79  55  44 W7        29.95F
P. VALLARTA    PTSUNNY   79  61  53 SW10      29.92F
URUAPAN        SUNNY     72  45  37 SE9       30.17F
ZACATECAS      PTSUNNY   72  21  15 W20       30.21F

CENTRAL MEXICO

CITY           SKY/WX    TMP DP  RH WIND       PRES   REMARKS
CUERNAVACA     SUNNY     84  50  30 W2        30.08F
MEXICO CITY    MOSUNNY   75  39  27 SE10      30.24F
MORELIA        SUNNY     79  41  25 SE5       30.18F
POZA RICA      CLOUDY    82  75  78 CALM      29.93F
PUEBLA         SUNNY     72  46  40 S16       30.27F
QUERETARO      SUNNY     77  30  18 W14       30.23F
S. LUIS POTOSI PTSUNNY   79   3   5 W15       30.15F
TAMPICO        PTSUNNY   82  72  69 E8        29.90F
TOLUCA         MOSUNNY   72  37  28 CALM      30.35F

SOUTHERN MEXICO

CITY           SKY/WX    TMP DP  RH WIND       PRES   REMARKS
ACAPULCO       SUNNY     86  75  70 W6        29.87F HX  95
B. DE HUATULCO MOSUNNY   86  70  58 S17       29.93F HX  90
OAXACA         PTSUNNY   82  46  28 S9        30.13F
P. ESCONDIDO   SUNNY     86  75  70 SW9       29.97F HX  95
VERACRUZ       MOSUNNY   82  75  78 E8        29.89F
ZIHUATANEJO    SUNNY     86  72  62 SW6       29.90F HX  92

YUCATAN PENINSULA

CITY           SKY/WX    TMP DP  RH WIND       PRES   REMARKS
CAMPECHE       MOSUNNY   91  75  59 E12       29.87F HX 102
CANCUN         PTSUNNY   84  77  79 SE12      29.98S HX  94
CHETUMAL       PTSUNNY   86  75  70 E12       29.93F HX  95
CD. DEL CARMEN MOSUNNY   88  75  66 S5        29.89F HX  97
COZUMEL        PTSUNNY   82  77  83 S6        29.96S HX  91
MERIDA         PTSUNNY   95  70  43 SE13      29.91F HX 101
MINATITLAN     SUNNY     84  77  79 N14       29.88F HX  94
TAPACHULA      MOSUNNY   90  73  58 W8        29.85F HX  98
TUX. GUTIERREZ MOSUNNY   88  64  45 NW7       29.89F
VILLAHERMOSA   MOSUNNY   88  73  62 E6        29.90F HX  96

CENTRAL AMERICA

CITY           SKY/WX    TMP DP  RH WIND       PRES   REMARKS
BELIZE CITY    MOSUNNY   86  79  79 E6        29.94F HX  99
MANAGUA        PTCLDY    90  68  48 E12       29.74F HX  93

CARIBBEAN

CITY           SKY/WX    TMP DP  RH WIND       PRES   REMARKS
ARUBA          MOSUNNY   84  75  74 NE15      29.86S HX  92
CURACAO        MOSUNNY   81  75  83 E12       29.89S
KINGSTON       MOSUNNY   88  72  58 SE18      29.92S HX  94
NASSAU         PTSUNNY   86  75  70 CALM      30.01F HX  95
SAN JUAN       PTCLDY    82  73  74 E13       30.00R
SANTO DOMINGO  MOSUNNY   84  77  79 SE5       29.97R HX  94
ST. CROIX      PTCLDY    82  72  69 NE8       29.99S
ST. KITTS      PTCLDY    81  73  78 N8        29.97S
ST. MAARTEN    PTCLDY    81  75  83 E9        30.00R
ST. THOMAS     CLEAR     82  73  74 NE10      29.99S

$$




USA.gov is the U.S. government's official web portal to all federal, state and local government web resources and services.